Tracking 28520 objects as of 29-Feb-2024
HD Live streaming from Space Station
objects crossing your sky now

SRMSAT

Track SRMSAT now!
10-day predictions
SRMSAT is classified as:


NORAD ID: 37841
Int'l Code: 2011-058D
Perigee: 854.4 km
Apogee: 871.4 km
Inclination: 20.0 °
Period: 102.1 minutes
Semi major axis: 7233 km
RCS: 0.1933 m2 (medium)
Launch date: October 12, 2011
Source: India (IND)
Launch site: SRIHARIKOTA (SRI)

Uplink (MHz): 145.900
Downlink (MHz): 437.500
Beacon (MHz): 437.425
Mode: CW
Call sign:
Status: Inactive

Your satellite tracking list
Your tracking list is empty




NASA's NSSDC Master Catalog

Two Line Element Set (TLE):
1 37841U 11058D   24060.14207365  .00000522  00000-0  14112-3 0  9999
2 37841  19.9715  96.2781 0011762 336.9751  61.7838 14.11045688639369
Source of the keplerian elements: Caltech